SCP
0 0 0 0 0 0 0 0 0 0 0 0 0 0 0 0 0 0 0 0 0 0 0 0 0 0 0 0 0 1 1 0 0 0 0 0 0 0 0 0 0 0 0 0
0 0 0 0 0 0 0 0 0 0 0 0 0 0 0 0 0 0 0 0 0 0 0 0 0 0 0 0 0 1 1 1 0 0 0 0 0 0 0 0 0 0 0 0
0 0 0 0 0 0 0 0 0 0 0 0 0 0 0 0 0 0 0 0 0 0 0 0 0 0 0 0 1 1 1 1 1 0 0 0 0 0 0 0 0 0 0 0
0 0 0 0 0 0 0 0 0 0 0 0 0 0 0 0 0 0 0 0 0 0 0 0 0 0 0 0 1 1 1 1 1 0 0 0 0 0 0 0 0 0 0 0
0 0 0 0 0 0 0 0 0 0 0 0 0 0 0 0 0 0 0 0 0 0 0 0 0 0 0 0 1 1 1 1 1 0 0 0 0 0 0 0 0 0 0 0
0 0 0 0 0 0 0 0 0 0 0 0 0 0 0 0 0 0 0 0 0 0 0 0 1 1 1 0 1 1 1 1 1 0 0 0 0 0 0 0 0 0 0 0
0 0 0 0 0 0 0 0 0 0 0 0 0 0 0 0 0 0 0 0 0 0 0 1 1 1 1 0 0 1 1 1 1 0 0 0 0 0 0 0 0 0 0 0
0 0 0 0 0 0 0 0 0 0 0 0 0 0 0 0 0 0 0 0 0 0 0 0 1 1 1 0 0 1 1 1 0 0 0 0 0 0 0 0 0 0 0 0
0 0 0 0 0 0 0 0 0 0 0 0 0 0 0 0 0 0 0 0 0 0 0 0 1 1 0 0 0 0 1 1 0 0 0 0 0 0 0 0 0 0 0 0
0 0 0 0 0 0 0 0 0 0 0 0 0 0 0 0 0 0 0 0 0 0 0 0 0 0 0 0 0 0 0 0 0 0 0 0 0 0 0 0 0 0 0 0
0 0 0 0 0 0 0 0 0 0 0 0 0 0 0 0 0 0 0 0 0 0 0 0 0 0 0 0 0 0 0 0 0 0 0 0 0 0 0 0 0 0 0 0
0 0 0 0 0 0 0 0 0 0 0 0 0 0 0 0 0 0 0 0 0 0 0 0 0 0 0 0 0 0 0 0 0 0 0 0 0 0 0 0 0 0 0 0
0 0 0 0 0 0 0 0 0 0 0 0 0 0 0 0 0 0 0 0 0 0 0 0 0 0 0 0 0 0 0 0 0 0 0 0 0 0 0 0 0 0 0 0
0 0 0 0 0 0 0 0 0 0 0 0 0 0 0 0 0 0 0 0 0 0 0 0 0 0 0 0 0 0 0 0 0 0 0 0 0 0 0 0 0 0 0 0
0 0 0 0 0 0 0 0 0 0 0 0 0 0 0 0 0 0 0 0 0 1 0 0 0 0 0 0 0 0 0 0 0 0 1 0 0 0 0 0 0 0 0 0
0 0 0 0 0 0 0 0 0 0 0 0 0 0 0 0 0 0 0 0 0 0 0 0 0 0 0 0 0 0 0 0 0 0 0 1 1 1 1 1 1 1 0 0
0 0 0 0 0 0 0 0 0 0 0 0 0 0 0 0 0 0 0 0 0 0 0 0 0 0 0 0 0 0 0 0 0 0 0 0 1 1 1 1 1 1 1 1
0 0 0 0 0 0 0 0 0 0 0 0 0 0 0 0 0 0 0 0 0 0 0 0 0 0 0 0 0 0 0 0 0 0 0 0 0 1 1 1 1 1 2 2
0 0 0 0 0 0 0 0 0 0 0 0 0 0 0 0 0 0 0 0 0 0 0 0 0 0 0 0 0 0 0 0 0 0 0 0 0 1 1 1 1 2 2 2
0 0 0 0 0 0 0 0 0 0 0 0 0 0 0 0 0 0 0 0 0 0 0 0 0 0 0 0 0 0 1 1 1 0 0 0 0 0 0 1 1 2 2 2
0 0 0 0 0 0 0 0 0 0 0 0 0 0 0 0 0 0 1 0 0 0 0 0 0 0 0 0 0 1 1 1 0 0 0 0 0 0 0 1 1 2 2 2
0 0 0 0 0 0 0 0 0 0 0 0 0 0 0 0 0 1 1 1 1 1 1 0 0 0 0 0 1 1 1 0 0 0 0 0 0 0 0 1 1 1 2 2
0 0 0 0 0 0 0 0 0 0 0 0 0 0 0 0 0 1 1 1 1 1 1 0 0 0 0 0 0 0 0 0 0 0 0 0 0 0 0 0 1 1 1 1
0 0 0 0 0 0 0 0 0 0 0 0 0 0 0 0 1 1 1 1 1 1 0 0 0 0 0 0 0 0 0 0 0 0 0 0 0 0 0 0 1 1 1 1
0 0 0 0 0 0 0 0 0 0 0 0 0 0 0 0 0 1 1 1 1 0 0 0 0 0 0 0 0 0 0 0 0 0 0 0 0 0 0 0 0 0 1 1
0 0 0 0 0 0 0 0 0 0 0 0 0 0 0 0 0 0 0 0 1 0 0 0 0 0 0 0 0 0 0 0 0 0 0 0 0 0 0 0 0 0 0 0
Wind_Speed
1 3 3 2 1 1 1 2 1 1 1 3 3 3 4 6 7 7 7 8 8 7 7 6 6 6 6 6 5 6 5 5 4 3 2 2 3 3 3 3 4 4 3 3
4 2 2 1 2 2 3 3 1 1 1 2 2 3 4 6 8 8 8 8 8 8 8 7 7 7 7 7 6 6 5 5 4 2 2 2 2 2 3 3 4 3 3 3
2 2 2 4 4 4 3 3 1 0 1 2 3 3 5 5 6 6 7 8 7 8 8 9 8 8 8 7 7 5 5 5 4 4 3 3 3 3 3 3 3 3 3 3
2 2 3 4 3 3 2 1 2 3 4 2 3 3 3 5 6 7 8 8 8 8 8 8 8 8 8 8 7 7 6 6 5 5 3 3 2 2 2 2 3 3 3 3
3 2 3 3 1 3 0 1 2 3 4 4 4 4 2 5 5 6 7 8 8 8 8 9 9 8 8 8 7 6 6 6 5 4 4 3 2 2 2 2 3 3 3 3
2 1 1 0 1 2 3 3 3 4 5 4 2 4 1 2 4 4 6 7 8 8 9 8 8 8 8 7 7 6 7 6 5 5 4 4 3 3 3 3 3 2 3 2
4 4 3 2 3 5 5 5 4 4 4 1 1 3 2 1 2 4 5 6 7 8 9 9 9 9 9 9 8 8 8 7 6 5 5 4 4 4 4 3 3 3 3 2
4 4 4 3 4 3 4 6 4 2 2 0 3 3 1 2 1 3 3 5 6 8 8 9 9 9 9 10 9 9 8 7 7 6 5 4 4 3 2 3 2 3 2 2
3 2 3 1 2 4 4 4 3 4 2 3 2 1 1 1 1 2 3 4 6 8 8 9 9 9 9 10 10 9 9 8 8 7 6 5 5 4 4 4 3 2 2 2
3 2 3 3 4 2 3 2 4 4 3 3 1 2 0 2 1 2 3 5 6 7 8 9 9 9 9 9 9 9 8 8 8 7 6 5 5 5 4 4 4 3 3 3
5 4 4 5 5 4 5 5 4 3 3 3 1 2 3 1 0 2 3 4 6 7 8 8 8 8 8 8 9 9 8 8 8 8 7 7 5 5 5 4 4 3 3 4
4 5 4 4 1 3 5 5 6 5 3 3 3 0 3 0 1 3 3 4 5 6 7 7 8 8 9 9 9 9 8 8 7 7 7 6 6 6 5 5 5 4 4 4
4 5 5 5 6 5 5 5 6 6 4 4 4 1 4 1 1 3 4 4 5 6 7 7 7 8 8 9 8 8 8 8 7 7 7 7 7 6 5 5 5 5 4 4
5 6 6 4 1 2 5 6 7 8 6 6 6 5 2 1 2 3 4 4 5 7 7 7 7 8 8 8 8 8 8 8 8 8 8 7 7 6 6 5 5 5 4 4
5 6 5 5 3 4 6 7 8 11 9 8 6 7 6 3 3 3 4 5 6 7 7 8 7 7 8 8 8 8 8 8 8 8 8 7 7 6 6 5 5 4 4 4
5 5 5 6 5 7 9 9 9 10 10 10 10 9 5 3 3 4 5 6 7 7 7 8 8 7 8 9 8 8 9 9 9 9 8 7 7 6 6 6 5 5 4 4
6 6 6 6 5 7 9 8 9 9 9 9 10 6 3 4 4 4 5 6 6 6 6 7 7 7 7 8 8 8 8 8 9 9 8 8 7 7 7 6 6 6 5 5
8 7 5 5 5 9 2 0 5 9 10 9 8 6 5 5 4 4 5 5 6 6 6 6 6 7 7 7 7 7 8 9 9 9 8 8 8 7 7 6 6 6 5 5
8 7 5 5 7 7 4 3 4 7 8 7 8 6 4 3 4 5 5 5 5 6 5 5 5 6 6 6 7 8 8 8 8 8 9 9 8 8 7 7 7 6 5 5
7 8 7 7 7 6 1 2 2 6 7 3 5 6 5 5 6 3 3 4 4 4 4 4 4 5 5 6 7 8 8 8 8 8 8 8 8 8 7 7 6 5 5 4
9 9 10 10 9 6 1 1 3 6 1 1 3 4 6 7 3 1 3 3 3 3 3 4 4 4 5 6 7 8 7 7 6 6 6 7 7 7 7 6 5 5 5 5
9 8 9 8 9 6 3 4 5 3 4 3 3 3 4 4 2 2 3 3 3 3 4 4 4 4 4 6 7 8 7 6 6 6 6 6 6 6 5 6 5 5 5 5
8 7 5 6 5 1 3 4 3 4 4 4 3 2 3 3 3 3 3 3 3 4 4 4 4 5 4 6 6 7 6 6 6 6 6 6 6 5 5 6 6 5 5 4
5 3 5 6 5 4 4 4 4 5 5 5 4 3 3 3 3 3 3 3 4 4 4 4 5 5 5 5 5 5 5 6 7 7 6 6 6 6 5 4 4 4 4 4
4 5 7 8 5 4 4 4 4 4 4 4 3 2 2 3 3 3 3 3 4 4 4 5 5 5 5 5 5 5 5 6 7 7 6 6 6 6 5 4 2 3 2 2
6 7 7 6 4 5 4 3 3 3 4 3 2 2 2 3 3 3 3 3 4 4 4 4 4 5 5 5 5 5 5 6 6 6 6 5 5 5 5 5 5 6 4 6
Wind_Direction
177 206 181 155 239 331 208 210 196 101 123 236 231 215 189 182 191 193 194 196 193 189 186 180 181 183 180 171 163 153 157 150 138 131 134 111 103 99 88 71 65 71 76 84
185 181 107 145 171 191 211 219 185 122 118 262 252 240 204 199 205 204 205 203 195 190 186 178 185 186 189 177 171 167 163 158 146 130 125 104 98 97 86 86 78 70 78 79
197 83 141 187 184 197 211 250 241 215 208 220 264 225 193 194 205 208 213 213 203 197 194 184 189 188 187 184 178 177 173 163 155 145 132 127 122 134 128 111 88 70 75 81
175 151 185 192 194 237 232 246 227 219 241 223 262 275 186 184 199 205 208 209 206 197 199 191 191 189 189 187 182 181 175 163 155 156 157 152 155 131 114 117 109 103 85 83
152 163 194 206 221 239 20 156 221 233 254 253 224 262 177 171 205 206 205 205 206 202 198 196 193 190 188 181 181 183 171 162 161 166 161 175 156 128 123 126 118 113 99 83
145 153 272 177 113 165 160 180 181 213 242 248 234 256 248 168 214 207 203 204 204 202 198 197 189 186 181 176 178 180 172 163 164 172 172 178 157 152 146 146 136 135 120 109
171 168 163 184 182 168 210 230 220 210 213 221 114 253 268 33 244 232 221 211 204 197 192 189 186 182 178 176 178 180 176 170 172 177 177 178 175 175 166 160 152 156 138 133
201 176 167 198 236 221 213 245 270 284 289 141 190 248 51 24 286 234 215 202 192 188 188 186 187 184 180 179 181 182 179 177 173 181 179 178 174 181 162 168 160 159 143 131
219 157 131 186 238 244 213 222 281 291 289 269 203 206 202 158 167 157 160 174 181 182 184 185 183 182 181 182 184 185 184 183 179 181 181 181 179 175 166 172 162 148 149 132
240 199 156 156 187 194 280 211 215 245 268 257 227 224 173 144 149 154 160 168 175 176 179 179 180 181 182 183 184 187 190 187 182 183 184 182 186 178 174 172 164 161 154 151
234 219 173 189 217 208 189 203 221 229 264 285 295 93 53 19 165 181 172 167 171 173 174 175 178 179 178 179 180 185 187 185 182 185 186 182 182 182 179 179 170 173 169 170
221 246 217 204 188 295 250 237 227 237 215 244 278 87 87 360 194 186 177 166 166 169 171 171 174 175 176 179 181 183 184 183 183 186 186 183 177 180 185 184 183 183 177 177
189 233 221 193 190 195 224 233 238 247 248 236 245 155 110 126 171 180 178 167 163 168 167 167 171 178 179 180 182 183 182 182 180 182 184 181 179 181 187 190 184 187 185 181
228 235 248 256 308 200 216 219 228 233 238 243 246 270 267 249 217 191 182 177 171 172 171 170 175 181 182 185 185 186 183 182 180 180 185 185 183 184 186 186 186 190 191 191
239 241 241 262 271 252 249 237 227 235 246 255 261 269 280 280 244 211 195 186 179 178 179 180 183 183 184 188 191 188 186 185 184 185 189 189 187 185 185 180 187 189 189 198
239 243 238 238 235 243 251 249 240 240 249 251 258 262 268 265 227 203 196 192 191 188 188 188 189 188 190 191 191 189 189 187 187 189 190 186 187 181 183 182 184 187 189 195
218 234 243 246 237 254 246 236 234 235 236 244 250 258 246 235 229 220 204 199 195 191 191 193 195 193 196 194 188 189 190 185 188 190 186 184 186 184 186 185 182 184 184 185
225 230 241 257 244 245 254 157 248 246 241 242 255 262 244 245 243 220 208 207 206 200 199 198 199 198 199 191 186 186 186 187 188 188 187 187 187 186 187 186 187 191 189 183
227 222 233 242 249 264 249 224 232 242 248 240 246 246 236 231 210 196 195 212 216 210 207 202 200 197 193 187 183 181 183 186 188 189 190 187 188 186 187 188 190 190 189 187
206 219 232 233 245 250 240 128 232 247 244 217 234 231 217 207 221 178 166 194 206 205 201 192 183 185 182 178 177 181 181 184 188 188 190 187 187 187 190 192 190 183 183 187
192 206 223 234 242 254 272 146 203 230 290 29 245 232 219 224 260 115 158 176 186 185 182 171 167 173 175 171 173 180 178 184 182 178 179 177 180 185 186 185 181 177 175 174
207 208 215 226 236 239 139 181 223 293 338 307 270 245 234 235 232 164 154 155 152 152 157 160 157 158 161 168 174 176 179 176 165 163 166 171 172 171 170 169 170 172 168 166
222 226 225 224 240 17 180 237 288 309 295 293 277 262 234 217 203 189 167 149 143 146 149 155 152 147 150 164 174 173 170 163 158 157 159 162 162 161 161 163 165 166 166 171
213 232 230 236 241 257 257 266 280 288 293 296 281 250 226 210 191 181 166 152 144 143 145 149 147 144 143 153 163 166 154 156 157 156 155 155 154 150 146 147 160 164 169 175
219 208 229 238 252 265 254 269 291 302 297 290 271 239 214 199 188 176 166 157 150 144 145 150 151 147 146 151 155 154 151 159 164 158 154 153 148 144 140 135 123 153 145 162
212 219 229 240 242 254 262 283 295 282 278 279 263 232 199 186 180 170 161 153 148 146 147 148 145 146 147 146 145 148 156 164 164 158 154 151 149 151 152 147 128 71 74 84